Location: Black Forest
(43.4794°N, 75.0081°W)
Time: 17:44:35
(UTC-04:00)

ISS - All Passes

Search period start: 29 August 2016 00:00
Search period end: 08 September 2016 00:00
Orbit: 402 x 406 km, 51.6° (Epoch: 29 August)

Date Brightness Start Highest point End Pass type
(mag) Time Alt. Az. Time Alt. Az. Time Alt. Az.
29 Aug - 07:37:17 10° SSE 07:39:03 14° SE 07:40:48 10° E daylight
29 Aug - 09:11:50 10° WSW 09:15:06 79° NW 09:18:24 10° NE daylight
29 Aug - 10:49:15 10° WNW 10:51:57 23° NNW 10:54:40 10° NE daylight
29 Aug - 12:26:38 10° NW 12:29:13 20° N 12:31:46 10° ENE daylight
29 Aug - 14:02:58 10° NW 14:06:13 51° NNE 14:09:25 10° ESE daylight
29 Aug - 15:39:50 10° W 15:42:29 22° SW 15:45:06 10° S daylight
30 Aug - 08:19:29 10° SW 08:22:42 57° SE 08:25:57 10° ENE daylight
30 Aug - 09:56:24 10° W 09:59:20 29° NNW 10:02:17 10° NE daylight
30 Aug - 11:34:03 10° NW 11:36:32 19° N 11:39:00 10° NE daylight
30 Aug - 13:10:37 10° NW 13:13:40 34° NNE 13:16:43 10° E daylight
30 Aug - 14:47:04 10° WNW 14:50:11 41° SW 14:53:17 10° SSE daylight
31 Aug - 07:27:26 10° SSW 07:30:22 30° SE 07:33:18 10° ENE daylight
31 Aug - 09:03:37 10° W 09:06:46 41° NNW 09:09:55 10° NE daylight
31 Aug - 10:41:20 10° NW 10:43:50 20° N 10:46:20 10° NE daylight
31 Aug - 12:18:14 10° NW 12:21:04 26° NNE 12:23:53 10° ENE daylight
31 Aug - 13:54:32 10° WNW 13:57:49 77° SW 14:01:05 10° SE daylight
01 Sep - 06:35:55 10° S 06:38:06 17° SE 06:40:19 10° E daylight
01 Sep - 08:10:59 10° WSW 08:14:15 66° NNW 08:17:32 10° NE daylight
01 Sep - 09:48:31 10° WNW 09:51:09 22° N 09:53:49 10° NE daylight
01 Sep - 11:25:48 10° NW 11:28:25 21° N 11:31:03 10° ENE daylight
01 Sep - 13:02:06 10° NW 13:05:22 61° NNE 13:08:36 10° ESE daylight
01 Sep - 14:39:11 10° W 14:41:33 18° SW 14:43:54 10° S daylight
02 Sep - 07:18:32 10° SW 07:21:48 70° SE 07:25:05 10° ENE daylight
02 Sep - 08:55:40 10° WNW 08:58:30 27° NNW 09:01:23 10° NE daylight
02 Sep - 10:33:15 10° NW 10:35:44 19° N 10:38:13 10° NE daylight
02 Sep - 12:09:43 10° NW 12:12:50 38° NNE 12:15:57 10° E daylight
02 Sep - 13:46:16 10° WNW 13:49:16 33° SW 13:52:15 10° SSE daylight
03 Sep - 06:26:23 10° SSW 06:29:26 37° SE 06:32:30 10° ENE daylight
03 Sep - 08:02:50 10° W 08:05:55 36° NNW 08:09:00 10° NE daylight
03 Sep - 09:40:33 10° NW 09:43:02 19° N 09:45:31 10° NE daylight
03 Sep - 11:17:20 10° NW 11:20:14 28° NNE 11:23:08 10° E daylight
03 Sep - 12:53:39 10° WNW 12:56:55 63° SW 13:00:09 10° SE daylight
04 Sep - 05:34:37 10° S 05:37:08 20° SE 05:39:39 10° E visible
04 Sep - 07:10:08 10° WSW 07:13:21 55° NNW 07:16:37 10° NE daylight
04 Sep - 08:47:44 10° WNW 08:50:20 21° N 08:52:55 10° NE daylight
04 Sep - 10:24:54 10° NW 10:27:35 22° NNE 10:30:16 10° ENE daylight
04 Sep - 12:01:10 10° NW 12:04:28 73° NNE 12:07:44 10° ESE daylight
04 Sep - 13:38:35 10° W 13:40:34 15° SW 13:42:33 10° S daylight
05 Sep - 04:43:52 10° SSE 04:44:54 11° SE 04:45:55 10° ESE visible
05 Sep - 06:17:36 10° SW 06:20:52 85° SSE 06:24:10 10° ENE daylight
05 Sep - 07:54:52 10° WNW 07:57:39 25° NNW 08:00:27 10° NE daylight
05 Sep - 09:32:22 10° NW 09:34:53 20° N 09:37:25 10° NE daylight
05 Sep - 11:08:46 10° NW 11:11:57 44° NNE 11:15:06 10° E daylight
05 Sep - 12:45:27 10° WNW 12:48:18 27° SW 12:51:08 10° SSE daylight
06 Sep - 05:25:19 10° SW 05:28:28 46° SE 05:31:37 10° ENE visible
06 Sep - 07:02:00 10° W 07:05:01 32° NNW 07:08:02 10° NE daylight
06 Sep - 08:39:42 10° NW 08:42:10 19° N 08:44:38 10° NE daylight
06 Sep - 10:16:22 10° NW 10:19:21 31° NNE 10:22:20 10° E daylight
06 Sep - 11:52:45 10° WNW 11:55:57 50° SW 11:59:07 10° SE daylight
07 Sep - 04:33:23 10° SSW 04:36:07 25° SE 04:38:52 10° E visible
07 Sep - 06:09:14 10° WSW 06:12:25 47° NNW 06:15:38 10° NE daylight
07 Sep - 07:46:55 10° WNW 07:49:27 20° N 07:52:00 10° NE daylight
07 Sep - 09:23:56 10° NW 09:26:41 24° NNE 09:29:27 10° ENE daylight
07 Sep - 11:00:12 10° WNW 11:03:30 87° NNE 11:06:47 10° ESE daylight
07 Sep - 12:38:05 10° WSW 12:39:31 12° SW 12:40:56 10° SSW daylight
